Location: Navalespino
(40.5894°N, 4.2660°W)
Time: 13:42:34
(UTC+00:00)

ERS-1 Rocket - Pass Details

Date: 18 April 2024
Orbit: 751 x 754 km, 98.3° (Epoch: 23 May)

Event Time Altitude Azimuth Distance (km) Brightness Sun altitude
Exits shadow 21:31:40 84° 152° (SSE) 761 2.8 -25.7°
Maximum altitude 21:31:51 88° 81° (E) 758 2.8 -25.8°
Drops below altitude 10° 21:36:53 10° 347° (NNW) 2,283 6.2 -26.4°
Sets 21:39:11 0° 348° (NNW) 3,212 7.1 -26.7°
